sat.trackr.live / text

‹ back to catalog

APRIZESAT 4

NORAD 35684 · 2009-041D

PAYLOAD ACTIVE UNKNOWN

§ Identity

Operator
Country
US
Launch date
2009-07-29
Launch site
TYMSC
Launch vehicle
Mass (kg)
RCS (m²)
0.11

Purposes: tech_demo

External: N2YO · Heavens-Above · Gunter

§ Orbital elements

Epoch: 2026-05-25T04:41:04.922304Z

Period
97.05 min
Inclination
98.1414°
Eccentricity
0.0044079
Mean motion
14.83841332 rev/d
Perigee alt
586.4 km
Apogee alt
648.1 km
Semi-major
6,995.4 km
B*
8.5733e-5
RAAN
220.0578°
Arg perigee
37.7522°
Mean anomaly
322.6770°
Rev number
90,795

§ Raw data

APRIZESAT 41 35684U 09041D   26145.19519586  .00000664  00000+0  85733-4 0  99972 35684  98.1414 220.0578 0044079  37.7522 322.6770 14.83841332907953

JSON: /api/v1/satellites/35684 · /tle

For live sub-satellite position, see the globe view (requires WebGL).

§ Visibility from observer

Set your observer location to see the next 7 days of passes ≥ 10°. The values pass through the URL so the page stays shareable.

No JS? Fill the form by hand. The geolocation button needs JavaScript.